DW0805 Ramloese DK current weather conditions

sailwx.info

Wind from 227 at 4 knots gusting 8

Air temperature 0.6° C
Dewpoint -0.6° C

Last reported at 2017-Jan-17 18:45 UTC.
Time now 2017-Jan-17 19:25 UTC

Location: N 56°01' E 012°05'.
View on Google Maps.

See reports from other nearby stations

  
Tides and Currents Weather Stations Pressure Air Temp Water Temp Dewpoint Dewpoint Depression Visibility Wind Speed Wind Dir Waves Ship Positions
date/time (UTC)wind fromknots sea level pressurealtimeterstation pressurevisibilityair tempwater tempwave heightnotes
2017-Jan-17 18:45 227 4 gusting 8 0.6
2017-Jan-17 18:35 229 6 gusting 8 0.6
2017-Jan-17 18:25 232 3 gusting 7 0.6
2017-Jan-17 18:05 232 2 gusting 7 0.6
2017-Jan-17 17:55 230 4 gusting 7 0.6
2017-Jan-17 17:35 230 4 gusting 8 -0.0
2017-Jan-17 17:25 236 3 gusting 8 -0.0
2017-Jan-17 17:05 244 5 gusting 8 -0.0
2017-Jan-17 16:55 239 4 gusting 10 -0.0
2017-Jan-17 16:45 239 5 gusting 8 -0.0
2017-Jan-17 16:35 235 5 gusting 7 -0.0
2017-Jan-17 16:25 239 6 gusting 12 -0.0
2017-Jan-17 16:15 241 6 gusting 10 -0.0
2017-Jan-17 16:05 233 5 gusting 10 -0.0
2017-Jan-17 15:35 229 6 gusting 10 -0.0
2017-Jan-17 15:25 226 7 gusting 11 -0.0
2017-Jan-17 15:15 228 6 gusting 11 -0.0
2017-Jan-17 14:45 234 6 gusting 10 -0.0
2017-Jan-17 14:25 227 7 gusting 10 -0.0
2017-Jan-17 13:55 224 6 gusting 10 0.6
2017-Jan-17 13:35 223 6 gusting 10 0.6
2017-Jan-17 12:55 226 6 gusting 8 -0.0
2017-Jan-17 12:35 221 6 gusting 8 -0.0
2017-Jan-17 12:25 212 4 gusting 7 -0.0
2017-Jan-17 12:15 212 5 gusting 6 -0.0
2017-Jan-17 12:05 212 4 gusting 7 -0.0
2017-Jan-17 11:45 207 4 gusting 6 -0.0
2017-Jan-17 11:35 208 4 gusting 6 -0.0
2017-Jan-17 11:25 207 5 gusting 6 -0.0
2017-Jan-17 11:15 208 4 gusting 6 -0.0
2017-Jan-17 10:55 210 5 gusting 7 -0.6
2017-Jan-17 10:45 207 5 gusting 8 -0.6
2017-Jan-17 10:25 199 4 gusting 6 -0.6
2017-Jan-17 09:55 162 2 gusting 4 -0.6
2017-Jan-17 09:45 158 2 gusting 4 -0.6
2017-Jan-17 09:25 154 1 gusting 2 -0.6
2017-Jan-17 09:15 155 2 gusting 4 -1.1
2017-Jan-17 08:45 150 1 gusting 4 -1.7
2017-Jan-17 08:35 149 4 gusting 5 -1.7
2017-Jan-17 08:25 094 -1.7
2017-Jan-17 08:15 091 1 gusting 2 -1.7
2017-Jan-17 08:05 086 1 gusting 2 -1.7
2017-Jan-17 07:45 074 0 gusting 2 -1.7
2017-Jan-17 07:35 073 0 gusting 2 -1.7
2017-Jan-17 07:15 073 0 gusting 2 -1.7
2017-Jan-17 07:05 073 -2.2
2017-Jan-17 06:55 073 1 gusting 2 -2.2
2017-Jan-17 06:45 073 -2.2
2017-Jan-17 06:35 072 -2.2
2017-Jan-17 06:25 072 0 gusting 1 -2.2
2017-Jan-17 06:15 073 1 gusting 2 -2.2
2017-Jan-17 06:05 073 0 gusting 2 -2.2
2017-Jan-17 05:45 071 1 gusting 2 -2.2
2017-Jan-17 05:35 071 0 gusting 2 -2.2
2017-Jan-17 05:25 071 -2.2
2017-Jan-17 05:15 071 -2.2
2017-Jan-17 05:05 071 1 gusting 2 -2.2
2017-Jan-17 04:35 071 -2.2
2017-Jan-17 04:15 071 -2.2
2017-Jan-17 04:05 071 -1.7
2017-Jan-17 03:55 071 -1.7
2017-Jan-17 03:45 071 -1.1
2017-Jan-17 03:35 071 -1.1
2017-Jan-17 03:25 071 -1.1
2017-Jan-17 03:15 071 -1.1
2017-Jan-17 02:55 071 0 gusting 1 -1.1
2017-Jan-17 02:45 071 -1.1
2017-Jan-17 02:15 071 -1.1
2017-Jan-17 02:05 071 0 gusting 1 -1.1
2017-Jan-17 01:55 071 -1.1
2017-Jan-17 01:45 071 -1.1
2017-Jan-17 01:35 071 -1.1
2017-Jan-17 01:25 071 -1.1
2017-Jan-17 01:05 071 -1.1
2017-Jan-17 00:45 071 -1.1
2017-Jan-17 00:35 071 -1.1
2017-Jan-17 00:25 071 -1.1
2017-Jan-17 00:15 071 -1.1
2017-Jan-17 00:05 071 -1.1
2017-Jan-16 23:55 071 -1.1
2017-Jan-16 23:45 071 -1.1
2017-Jan-16 23:25 071 1 gusting 2 -1.1
2017-Jan-16 23:15 071 1 gusting 5 -1.1
2017-Jan-16 23:05 071 1 gusting 5 -1.1
2017-Jan-16 22:55 071 1 gusting 2 -1.1
2017-Jan-16 22:45 071 1 gusting 6 -1.1
2017-Jan-16 22:25 061 2 gusting 6 -1.1
2017-Jan-16 22:15 049 2 gusting 6 -1.1
2017-Jan-16 22:05 037 4 gusting 7 -1.1
2017-Jan-16 21:35 062 0 gusting 2 -1.7
2017-Jan-16 20:55 069 3 gusting 6 -1.1
2017-Jan-16 20:35 048 1 gusting 4 -1.1
2017-Jan-16 20:25 049 1 gusting 6 -1.1
2017-Jan-16 20:15 047 1 gusting 5 -1.7
2017-Jan-16 19:45 034 0 gusting 2 -1.7
2017-Jan-16 19:35 034 -1.7
2017-Jan-16 19:25 034 -1.7
2017-Jan-16 19:15 034 0 gusting 5 -2.2
2017-Jan-16 19:05 032 1 gusting 2 -2.2
2017-Jan-16 18:55 032 0 gusting 2 -2.2
2017-Jan-16 18:45 032 1 gusting 4 -2.2
2017-Jan-16 18:35 032 1 gusting 2 -2.2
2017-Jan-16 18:25 031 1 gusting 4 -2.2
2017-Jan-16 18:15 028 2 gusting 5 -2.8
2017-Jan-16 18:05 024 1 gusting 4 -2.8
2017-Jan-16 17:55 019 0 gusting 2 -2.8
2017-Jan-16 17:45 019 -2.8
2017-Jan-16 17:35 019 0 gusting 2 -2.8
2017-Jan-16 17:15 019 1 gusting 2 -2.2
2017-Jan-16 17:05 019 1 gusting 4 -2.8
2017-Jan-16 16:55 019 1 gusting 2 -2.2
2017-Jan-16 16:35 020 0 gusting 1 -2.2
2017-Jan-16 16:25 020 1 gusting 2 -1.7
2017-Jan-16 16:15 020 0 gusting 2 -1.7
2017-Jan-16 16:05 020 -1.7
2017-Jan-16 15:55 020 -1.1
2017-Jan-16 15:45 020 0 gusting 2 -1.1
2017-Jan-16 15:15 021 1 gusting 5 -0.6
2017-Jan-16 15:05 008 1 gusting 7 -0.0
2017-Jan-16 14:55 024 4 gusting 10 -0.0
2017-Jan-16 14:35 040 7 gusting 11 0.6
2017-Jan-16 14:25 016 5 gusting 12 0.6
2017-Jan-16 14:15 010 6 gusting 12 1.1
2017-Jan-16 13:55 021 8 gusting 14 1.1
2017-Jan-16 13:35 007 7 gusting 12 2.8
2017-Jan-16 13:25 355 8 gusting 15 2.2
2017-Jan-16 12:55 351 7 gusting 13 2.8
2017-Jan-16 12:45 335 6 gusting 13 2.8
2017-Jan-16 12:05 003 8 gusting 14 2.2
2017-Jan-16 11:55 350 5 gusting 14 2.8
2017-Jan-16 11:45 353 6 gusting 11 2.8
2017-Jan-16 11:35 013 6 gusting 11 2.8
2017-Jan-16 11:25 010 7 gusting 13 2.8
2017-Jan-16 11:15 030 6 gusting 11 2.8
2017-Jan-16 11:05 021 4 gusting 12 2.8
2017-Jan-16 10:55 003 6 gusting 13 2.2
2017-Jan-16 10:35 358 7 gusting 11 2.8
2017-Jan-16 10:25 011 6 gusting 10 2.8
2017-Jan-16 10:05 2.2
2017-Jan-16 09:25 012 6 gusting 11 1.1
2017-Jan-16 09:05 007 6 gusting 11 0.6
2017-Jan-16 08:55 010 6 gusting 11 0.6
2017-Jan-16 08:45 007 8 gusting 13 -0.0
2017-Jan-16 08:15 004 4 gusting 7 -1.1
2017-Jan-16 08:05 008 2 gusting 10 -1.1
2017-Jan-16 07:35 006 4 gusting 8 -1.1
2017-Jan-16 07:25 358 6 gusting 10 -1.1
2017-Jan-16 07:15 012 7 gusting 13 -1.1
2017-Jan-16 07:05 003 8 gusting 12 -1.7
2017-Jan-16 06:55 008 6 gusting 11 -1.7
2017-Jan-16 06:35 008 5 gusting 10 -2.8
2017-Jan-16 05:45 019 2 gusting 4 -3.3
2017-Jan-16 05:35 019 0 gusting 2 -3.3
2017-Jan-16 05:25 019 0 gusting 2 -3.3
2017-Jan-16 05:15 019 1 gusting 2 -2.8
2017-Jan-16 05:05 019 -2.8
2017-Jan-16 04:55 019 0 gusting 2 -2.2
2017-Jan-16 04:15 007 2 gusting 7 -2.2
2017-Jan-16 04:05 005 4 gusting 10 -2.2
2017-Jan-16 03:55 016 4 gusting 7 -2.2
2017-Jan-16 03:35 014 5 gusting 10 -2.2
2017-Jan-16 03:25 006 5 gusting 10 -2.2
2017-Jan-16 03:15 010 6 gusting 10 -2.2
2017-Jan-16 03:05 015 4 gusting 8 -2.8
2017-Jan-16 02:55 006 2 gusting 8 -3.3
2017-Jan-16 02:35 007 2 gusting 5 -3.9
2017-Jan-16 02:15 007 1 gusting 2 -3.9
2017-Jan-16 02:05 007 1 gusting 2 -3.9
2017-Jan-16 01:45 010 2 gusting 5 -3.3
2017-Jan-16 01:35 013 0 gusting 4 -3.3
2017-Jan-16 01:25 015 1 gusting 4 -3.9
2017-Jan-16 01:15 015 2 gusting 4 -3.9
2017-Jan-16 01:05 015 2 gusting 5 -3.9
2017-Jan-16 00:55 020 2 gusting 5 -3.9
2017-Jan-16 00:45 023 0 gusting 2 -4.4
2017-Jan-16 00:15 023 1 gusting 2 -3.9
2017-Jan-16 00:05 023 1 gusting 2 -3.9
2017-Jan-15 23:45 024 1 gusting 2 -3.9
2017-Jan-15 23:25 023 1 gusting 2 -3.3
2017-Jan-15 23:15 023 -3.3
2017-Jan-15 23:05 023 0 gusting 2 -3.9
2017-Jan-15 22:55 023 2 gusting 2 -3.9
2017-Jan-15 22:45 024 1 gusting 2 -3.9
2017-Jan-15 22:35 023 1 gusting 2 -3.9
2017-Jan-15 22:25 024 1 gusting 4 -3.9
2017-Jan-15 22:15 023 1 gusting 2 -3.9
2017-Jan-15 21:55 023 1 gusting 2 -3.9
2017-Jan-15 21:45 024 2 gusting 4 -3.9
2017-Jan-15 21:25 024 1 gusting 2 -3.3
2017-Jan-15 20:45 024 1 gusting 2 -3.3
2017-Jan-15 20:25 024 1 gusting 2 -2.8
2017-Jan-15 20:15 024 1 gusting 2 -2.2
2017-Jan-15 20:05 024 1 gusting 4 -2.2
2017-Jan-15 19:35 021 2 gusting 6 -2.2
2017-Jan-15 19:25 026 1 gusting 5 -1.7
2017-Jan-15 19:15 038 1 gusting 6 -1.7
2017-Jan-15 19:05 027 2 gusting 6 -1.7